Location: Zagreb
(45.8000°N, 16.0000°E)
Time: 01:13:54
(UTC+01:00)

SR - Pass Details

Date: 16 August 2020
Orbit: 576 x 879 km, 66.7° (Epoch: 15 January)

Event Time Altitude Azimuth Distance (km) Brightness Sun altitude
Rises 04:35:17 0° 335° (NNW) 2,806 ? -13.4°
Reaches altitude 10° 04:37:49 10° 349° (N) 1,920 ? -13.1°
Maximum altitude 04:41:22 25° 45° (NE) 1,248 ? -12.5°
Drops below altitude 10° 04:45:04 10° 101° (E) 2,004 ? -12.0°
Sets 04:47:45 0° 114° (ESE) 2,958 ? -11.6°
